Flag for Germany Weather past 2 weeks in Giessen, Hesse, Germany

Now
51 °F

Passing clouds.


Feels Like: 49 °F
Forecast: 34 / 61 °F
Wind: 7 mph from North

Location: Giessen


UV Index: 0 (Low)

Visibility: 18 mi


Pressure: 29.90 "Hg

Humidity: 55%

Dew point: 36 °F

Location of GiessenLocation

Historic Weather in Giessen

°F

Giessen temperature yesterday

Maximum temperature yesterday: 59 °F (at 6:00 PM)
Minimum temperature yesterday: 31 °F (at 7:00 AM)
Average temperature yesterday: 44 °F

Past Weeks' High & Low Weather Summary

 TemperatureHumidityPressure
High72 °F (Apr 3, 5:00 PM)98% (Apr 6, 7:00 AM)30.46 "Hg (Apr 6, 7:00 AM)
Low30 °F (Apr 16, 7:00 AM)31% (Apr 17, 6:00 PM)29.63 "Hg (Apr 3, 5:00 PM)
Average51 °F71%30.06 "Hg
* Reported Apr 3 12:00 Noon — Apr 18 12:00 Noon, Giessen, Weather by CustomWeather, © 2014

Note: Actual official high and low records may vary slightly from our data, if they occured in-between our weather recording intervals... More about our weather records

Advertising

Historic Weather Conditions — Data for Previous 24 hours

 ConditionsComfort  
Time TempWeatherWind HumidityBarometerVisibility
12:00 PM
Apr 18
50 °FPartly sunny.6 mph54%29.90 "Hg25 mi
11:00 AM48 °FOvercast.5 mph58%29.90 "Hg43 mi
10:00 AM46 °FOvercast.6 mph62%29.90 "Hg40 mi
9:00 AM44 °FPassing clouds.3 mph71%29.89 "Hg28 mi
8:00 AM45 °FSunny.5 mph71%29.88 "Hg22 mi
7:00 AM45 °FOvercast.6 mph77%29.88 "Hg31 mi
6:00 AM46 °FOvercast.3 mph86%29.85 "Hg11 mi
5:00 AM48 °FLight freezing rain. Overcast.3 mph81%29.85 "Hg5 mi
4:00 AM49 °FOvercast.3 mph72%29.85 "Hg17 mi
3:00 AM48 °FLight freezing rain. Overcast.3 mph68%29.86 "Hg13 mi
2:00 AM50 °FOvercast.5 mph52%29.87 "Hg22 mi
6:00 PM
Apr 17
59 °FPassing clouds.3 mph31%30.03 "Hg25 mi
5:00 PM58 °FOvercast.5 mph32%30.06 "Hg19 mi
4:00 PM57 °FOvercast.5 mph32%30.09 "Hg18 mi
3:00 PM56 °FOvercast.3 mph37%30.13 "Hg25 mi
2:00 PM54 °FOvercast.5 mph36%30.17 "Hg16 mi
1:00 PM53 °FPassing clouds.6 mph39%30.22 "Hg17 mi
Weather by CustomWeather, © 2014

See weather overview